[[{"header":{"parameterUnit":"m.s-1","parameterCategory":1,"la1":30.2991,"la2":30.254,"lo1":-89.0895,"lo2":-89.0444,"dy":0.0017,"dx":0.0017,"nx":28,"ny":28,"refTime":"2025-07-04T09:00:00:Z","depth":0,"parameterNumber":2,"parameterNumberName":"U-component_of_WINDS"},"data":[0,0,0,0,0,0,0,0,0,0,0,0,0,0,0,0,0,0,0,0,0,0,0,0,0,0,0,0,0,0,0,0,0,0,0,0,0,0,0,0,0,0,0,0,0,0,0,0,0,0,0,0,0,0,0,0,0,0,1.0722,1.0723,0,1.0861,1.0863,1.0864,1.0889,1.0888,1.0886,1.0885,1.1034,1.1039,1.1044,0,0,0,0,0,0,0,0,0,0,0,0,0,1.0483,1.0487,1.0721,1.0723,1.0725,1.0861,1.0863,1.0865,1.0889,1.0888,1.0886,1.0885,1.1032,1.1038,1.1044,0,0,0,0,0,0,0,0,0,0,0,0,0,1.0601,1.0489,1.0721,1.0753,1.0758,1.086,1.0863,1.0865,1.0889,1.0888,1.0886,1.0884,1.103,1.1038,1.1045,1.1127,0,0,1.1068,1.1072,0,0,0,0,0,0,0,0,1.0594,1.061,1.0747,1.0751,1.0756,1.0856,1.0833,1.0953,1.089,1.0839,1.0885,1.0883,1.0976,1.0988,1.1019,1.1134,1.1141,1.1069,1.1074,1.1077,1.1079,0,0,0,0,0,0,0,1.0586,1.0604,1.0777,1.0749,1.0755,1.0763,1.0778,1.0856,1.0916,1.0844,1.0846,1.0862,1.0979,1.1011,1.1022,1.1143,1.1069,1.1076,1.108,1.1083,1.1336,1.1338,0,0,0,0,0,0,1.0571,1.0597,1.0772,1.0781,1.0669,1.0769,1.0785,1.0826,1.0916,1.0927,1.0863,1.0862,1.0999,1.1013,1.1028,1.1131,1.1077,1.1084,1.1088,1.1334,1.1337,1.1339,0,0,0,0,0,0,1.0566,1.0587,1.0767,1.069,1.0713,1.0775,1.082,1.0829,1.0862,1.093,1.0942,1.0885,1.0998,1.1017,1.1103,1.1137,1.1087,1.1094,1.1331,1.1335,1.1338,1.1338,0,0,0,0,0,0,1.0559,1.0585,1.0615,1.069,1.0717,1.0837,1.0822,1.0833,1.0874,1.0874,1.0953,1.0965,1.0998,1.1091,1.111,1.1146,1.11,1.1329,1.1333,1.1337,1.1335,1.1341,1.1345,0,0,0,0,0,1.0551,1.061,1.0616,1.0637,1.0756,1.0839,1.0855,1.089,1.0877,1.0909,1.0953,1.0962,1.113,1.11,1.1121,1.116,1.1327,1.1332,1.1336,1.1333,1.1339,1.1345,0,0,0,0,0,0,1.0539,1.062,1.0628,1.0713,1.0769,1.0843,1.0884,1.0896,1.0958,1.0956,1.1,1.1017,1.1101,1.1139,1.1104,1.1246,1.1228,1.1237,1.1217,1.1224,1.1229,1.1219,1.1107,0,0,0,0,0,1.0545,1.0604,1.0674,1.0742,1.0769,1.0822,1.086,1.0882,1.0942,1.0967,1.1017,1.1077,1.1143,1.1186,1.1251,1.1341,1.136,1.1379,1.1384,1.1388,1.1395,1.1448,1.1457,1.1355,1.1355,1.1355,0,0,1.0561,1.0613,1.0648,1.0741,1.0787,1.0849,1.0842,1.0907,1.0955,1.0977,1.1061,1.11,1.117,1.1259,1.13,1.1293,1.1428,1.1394,1.1396,1.1402,1.1454,1.1463,1.1472,1.1358,1.1358,1.1357,0,0,1.0621,1.0665,1.0728,1.0774,1.0843,1.0878,1.0893,1.0966,1.0993,1.1077,1.1096,1.1154,1.1267,1.1316,1.1356,1.1437,1.1449,1.1457,1.1484,1.1535,1.1543,1.155,1.158,1.159,1.1464,1.1465,1.1465,0,1.0632,1.0724,1.0759,1.0824,1.0866,1.0888,1.0953,1.0997,1.1084,1.1114,1.1104,1.1247,1.1296,1.1397,1.1417,1.1448,1.1468,1.1448,1.1538,1.1546,1.1554,1.1583,1.1594,1.1465,1.1465,1.1465,1.1465,0,1.0735,1.0799,1.0842,1.0924,1.097,1.1035,1.1082,1.1126,1.1145,1.1182,1.1269,1.1328,1.1406,1.1432,1.1452,1.1537,1.153,1.1529,1.1512,1.1563,1.1592,1.1603,1.1466,1.1466,1.1466,1.1465,0,0,1.079,1.0891,1.0906,1.0945,1.1023,1.1075,1.1142,1.1217,1.1254,1.1314,1.1373,1.1468,1.1468,1.1514,1.154,1.1584,1.1646,1.1578,1.158,1.1589,1.1746,1.1746,1.1758,1.1655,1.1657,1.1659,1.174,0,1.0859,1.0977,1.1012,1.1112,1.1173,1.1196,1.1255,1.1311,1.1348,1.1407,1.1449,1.1516,1.151,1.1538,1.1583,1.1629,1.1678,1.1624,1.1712,1.1714,1.1693,1.1773,1.1773,1.1847,1.1751,1.1753,1.1754,0,1.0956,1.1016,1.1122,1.1194,1.1221,1.1273,1.1345,1.1401,1.1466,1.149,1.1541,1.1564,1.1638,1.1616,1.172,1.1682,1.1721,1.1749,1.1753,1.1763,1.1737,1.1785,1.1871,1.1882,1.1772,1.1771,1.1769,0,1.0986,1.1094,1.1172,1.1204,1.129,1.1327,1.1365,1.1428,1.1471,1.1535,1.1564,1.1637,1.1677,1.1733,1.1776,1.1756,1.1877,1.1858,1.19,1.1899,1.1924,1.1922,1.2018,1.1948,1.1948,1.1948,1.1948,0,1.106,1.1124,1.1187,1.1234,1.1308,1.1349,1.1421,1.1461,1.1518,1.1575,1.1601,1.1655,1.1708,1.177,1.1804,1.1886,1.1904,1.1926,1.1935,1.1924,1.1921,1.195,1.1946,1.1951,1.195,1.195,1.1949,0,1.1105,1.115,1.1236,1.1311,1.1332,1.1383,1.1448,1.1497,1.1535,1.1608,1.1627,1.1688,1.1763,1.1811,1.1906,1.193,1.2019,1.2026,1.1996,1.2,1.2039,1.2035,1.2157,1.2175,1.2093,1.2094,1.2095,0,1.1149,1.1199,1.1279,1.1319,1.1357,1.1421,1.1465,1.1508,1.1554,1.1633,1.1673,1.1748,1.1811,1.193,1.1984,1.2058,1.2067,1.2105,1.2078,1.2066,1.2068,1.2065,1.2071,1.2109,1.2109,1.211,1.211,0,1.1223,1.1243,1.1305,1.1375,1.1426,1.1484,1.1542,1.1574,1.1627,1.1678,1.1753,1.1802,1.1899,1.1975,1.2054,1.2096,1.2113,1.2118,1.2132,1.2121,1.2102,1.2114,1.2008,1.2115,1.2115,1.2114,1.2114,1.2114,1.127,1.1316,1.138,1.1448,1.1496,1.155,1.16,1.1644,1.1707,1.1788,1.1811,1.1891,1.1958,1.2065,1.2109,1.2173,1.2169,1.2188,1.2193,1.2198,1.2198,1.2092,1.2188,1.2188,1.2188,1.2188,1.2188,0,1.1346,1.1388,1.1451,1.153,1.1585,1.1595,1.166,1.1705,1.1774,1.1834,1.1895,1.1984,1.2058,1.2118,1.2195,1.2236,1.2245,1.2254,1.2252,1.2262,1.2197,1.2178,1.2245,1.2245,1.2245,1.2245,1.2245,1.2245,1.1391,1.147,1.1498,1.1601,1.1644,1.1721,1.1757,1.1808,1.1856,1.1953,1.2014,1.2052,1.2113,1.2195,1.2265,1.2281,1.2308,1.2316,1.2334,1.2272,1.2266,1.226,1.2242,1.2321,1.2321,1.2393,1.2393,1.2394]},{"header":{"parameterUnit":"m.s-1","parameterCategory":1,"la1":30.2991,"la2":30.254,"lo1":-89.0895,"lo2":-89.0444,"dy":0.0017,"dx":0.0017,"nx":28,"ny":28,"refTime":"2025-07-04T09:00:00:Z","depth":0,"parameterNumber":3,"parameterNumberName":"V-component_of_WINDS"},"data":[0,0,0,0,0,0,0,0,0,0,0,0,0,0,0,0,0,0,0,0,0,0,0,0,0,0,0,0,0,0,0,0,0,0,0,0,0,0,0,0,0,0,0,0,0,0,0,0,0,0,0,0,0,0,0,0,0,0,0.5083,0.5084,0,0.5204,0.5206,0.5207,0.5146,0.5142,0.5139,0.5136,0.5261,0.5267,0.5274,0,0,0,0,0,0,0,0,0,0,0,0,0,0.4796,0.4801,0.5083,0.5084,0.5086,0.5204,0.5206,0.5207,0.5146,0.5142,0.5138,0.5135,0.5259,0.5267,0.5274,0,0,0,0,0,0,0,0,0,0,0,0,0,0.4919,0.4803,0.5083,0.507,0.507,0.5204,0.5206,0.5208,0.5147,0.5142,0.5137,0.5133,0.5257,0.5266,0.5275,0.543,0,0,0.5304,0.5308,0,0,0,0,0,0,0,0,0.4912,0.493,0.507,0.5071,0.5071,0.5155,0.515,0.5282,0.5148,0.5118,0.5136,0.513,0.523,0.5241,0.5274,0.5435,0.5441,0.5305,0.5311,0.5315,0.5318,0,0,0,0,0,0,0,0.4904,0.4924,0.5131,0.5072,0.5073,0.5057,0.5069,0.5175,0.5199,0.512,0.5116,0.5131,0.5229,0.5266,0.5277,0.5443,0.5305,0.5313,0.5319,0.5323,0.573,0.5735,0,0,0,0,0,0,0.4896,0.4918,0.5127,0.5135,0.4978,0.5066,0.508,0.5133,0.5198,0.5203,0.5135,0.5128,0.5252,0.5266,0.5281,0.5462,0.5315,0.5324,0.5329,0.5725,0.5731,0.5737,0,0,0,0,0,0,0.489,0.4915,0.5122,0.5025,0.505,0.5076,0.5136,0.5138,0.5174,0.5209,0.5213,0.5168,0.5249,0.5268,0.5392,0.5466,0.5328,0.5337,0.5719,0.5727,0.5734,0.5828,0,0,0,0,0,0,0.4882,0.4914,0.4974,0.5027,0.5055,0.5232,0.5141,0.5144,0.519,0.5182,0.5241,0.5246,0.5246,0.5378,0.5401,0.5476,0.5344,0.5712,0.5723,0.5732,0.5819,0.5838,0.5855,0,0,0,0,0,0.4872,0.4997,0.4977,0.5003,0.5131,0.5237,0.5253,0.525,0.5197,0.5256,0.5278,0.5244,0.5454,0.5391,0.5417,0.5496,0.5708,0.572,0.5731,0.5811,0.5834,0.5855,0,0,0,0,0,0,0.4954,0.5004,0.4982,0.5128,0.5178,0.5226,0.5301,0.5276,0.5344,0.5333,0.5327,0.5341,0.5468,0.5495,0.5424,0.5646,0.5572,0.559,0.5624,0.5647,0.5665,0.5656,0.5352,0,0,0,0,0,0.4988,0.507,0.5109,0.5234,0.526,0.5276,0.5322,0.5315,0.5367,0.5389,0.542,0.5471,0.5548,0.5599,0.5672,0.5822,0.5832,0.5889,0.5907,0.5921,0.5936,0.6013,0.6037,0.5775,0.5775,0.5775,0,0,0.5061,0.5098,0.5151,0.5251,0.5289,0.5372,0.5295,0.5388,0.5449,0.5403,0.5521,0.5545,0.5602,0.5738,0.5799,0.5764,0.601,0.5936,0.5948,0.5955,0.6027,0.6052,0.6074,0.5783,0.5781,0.578,0,0,0.5236,0.5274,0.538,0.5418,0.5476,0.5485,0.551,0.5561,0.5575,0.5693,0.5658,0.573,0.5865,0.5905,0.5943,0.6127,0.6098,0.6151,0.6246,0.6321,0.6341,0.636,0.6422,0.6445,0.6166,0.6166,0.6167,0,0.532,0.5445,0.5438,0.5531,0.5575,0.5535,0.564,0.5678,0.5757,0.5787,0.5746,0.5909,0.5946,0.6088,0.6132,0.6166,0.6192,0.6145,0.6339,0.6357,0.6374,0.6434,0.6458,0.6172,0.6172,0.6171,0.617,0,0.5543,0.5629,0.5707,0.5782,0.5834,0.5934,0.594,0.5994,0.5981,0.5994,0.6112,0.6152,0.6231,0.6264,0.6254,0.6405,0.638,0.6339,0.6265,0.6405,0.6461,0.6484,0.6181,0.6179,0.6177,0.6175,0,0,0.5776,0.5841,0.587,0.5901,0.5959,0.6026,0.6122,0.6197,0.6241,0.6296,0.6374,0.6486,0.6447,0.649,0.6483,0.6549,0.6687,0.6499,0.65,0.6531,0.6851,0.688,0.6907,0.6668,0.6672,0.6676,0.6845,0,0.5953,0.612,0.6114,0.6269,0.6347,0.6307,0.639,0.6434,0.6447,0.6514,0.6529,0.6607,0.6551,0.6576,0.6639,0.6657,0.6751,0.6645,0.6739,0.6742,0.6725,0.6937,0.6969,0.7127,0.6867,0.6871,0.6874,0,0.6183,0.6242,0.6405,0.6446,0.6479,0.6554,0.6619,0.6684,0.6731,0.6736,0.6782,0.6763,0.6857,0.678,0.6909,0.6836,0.6874,0.6888,0.6894,0.6902,0.6816,0.6948,0.7178,0.7201,0.6909,0.6906,0.6903,0,0.6332,0.6453,0.6565,0.6593,0.6646,0.6698,0.6723,0.6765,0.6809,0.6866,0.6894,0.6962,0.6999,0.7051,0.705,0.6995,0.7179,0.7103,0.7183,0.7183,0.7224,0.7221,0.7461,0.7251,0.7251,0.725,0.725,0,0.653,0.6631,0.6632,0.6701,0.6811,0.6801,0.691,0.6929,0.6966,0.7036,0.7006,0.7072,0.7068,0.7134,0.7134,0.7238,0.7256,0.726,0.7259,0.7262,0.7261,0.7286,0.7275,0.7256,0.7255,0.7254,0.7253,0,0.6717,0.6722,0.6841,0.6879,0.689,0.6969,0.7001,0.7065,0.7074,0.7163,0.7183,0.7197,0.7273,0.7277,0.7366,0.7365,0.749,0.7478,0.7474,0.7471,0.7551,0.7542,0.7814,0.7847,0.7617,0.762,0.7621,0,0.6842,0.6918,0.6963,0.7007,0.7033,0.7105,0.7149,0.7141,0.7187,0.7243,0.73,0.7372,0.743,0.7553,0.757,0.7636,0.7624,0.7714,0.7634,0.7633,0.7622,0.7616,0.7622,0.773,0.7732,0.7734,0.7736,0,0.7063,0.706,0.7124,0.7187,0.7239,0.7289,0.7335,0.7373,0.737,0.7423,0.7499,0.7544,0.7631,0.7703,0.7766,0.7789,0.7762,0.7761,0.7782,0.7786,0.778,0.7781,0.7515,0.7755,0.7753,0.7752,0.7751,0.775,0.7222,0.7285,0.7325,0.7395,0.7428,0.747,0.7531,0.7545,0.7609,0.7679,0.767,0.7754,0.7794,0.7875,0.7904,0.7968,0.7937,0.7969,0.7977,0.7984,0.7991,0.777,0.798,0.7979,0.7978,0.7978,0.7978,0,0.7438,0.7461,0.7525,0.7589,0.7643,0.761,0.7658,0.7706,0.7779,0.7819,0.7875,0.796,0.8028,0.8049,0.8114,0.8161,0.8149,0.8178,0.8173,0.8178,0.8017,0.799,0.8185,0.8185,0.8185,0.8185,0.8185,0.8185,0.7558,0.7661,0.7663,0.7781,0.7803,0.7884,0.7913,0.7951,0.7982,0.8078,0.8133,0.8146,0.8177,0.8243,0.8302,0.8306,0.833,0.8364,0.8363,0.8211,0.819,0.8171,0.8145,0.837,0.837,0.8518,0.852,0.8521]}]]